sat.trackr.live / text

‹ back to catalog

STARLINK-32623

NORAD 62152 · 2024-224P

PAYLOAD ACTIVE UNKNOWN

§ Identity

Operator
Country
US
Launch date
2024-11-30
Launch site
AFETR
Launch vehicle
Mass (kg)
RCS (m²)

Purposes: comms

External: N2YO · Heavens-Above · Gunter

§ Orbital elements

Epoch: 2026-05-25T04:54:17.373600Z

Period
94.27 min
Inclination
42.9962°
Eccentricity
0.0001462
Mean motion
15.27586186 rev/d
Perigee alt
482.0 km
Apogee alt
484.0 km
Semi-major
6,861.2 km
B*
5.9967e-4
RAAN
89.3089°
Arg perigee
260.5669°
Mean anomaly
99.5017°
Rev number
8,408

§ Raw data

STARLINK-326231 62152U 24224P   26145.20436775  .00016279  00000+0  59967-3 0  99952 62152  42.9962  89.3089 0001462 260.5669  99.5017 15.27586186 84084

JSON: /api/v1/satellites/62152 · /tle

For live sub-satellite position, see the globe view (requires WebGL).

§ Visibility from observer

Set your observer location to see the next 7 days of passes ≥ 10°. The values pass through the URL so the page stays shareable.

No JS? Fill the form by hand. The geolocation button needs JavaScript.